Change the Weather History Date:

Friday, March 14, 2014

  Actual Average Record
Temperature  
Mean Temperature 52 °F -  
Max Temperature 70 °F 68 °F 81 °F (2007)
Min Temperature 36 °F 46 °F 32 °F (2013)
Degree Days  
Heating Degree Days 12    
Growing Degree Days 2 (Base 50)    
Moisture  
Dew Point 37 °F    
Average Humidity 64    
Maximum Humidity 100    
Minimum Humidity 26    
Precipitation  
Precipitation 0.00 in - - ()
Sea Level Pressure  
Sea Level Pressure 30.22 in    
Wind  
Wind Speed 3 mph (SSE)    
Max Wind Speed 14 mph    
Max Gust Speed 18 mph    
Visibility 9 miles    
Events      
Averages and records for this station are not official NWS values.
T = Trace of Precipitation, MM = Missing Value Source: NWS Daily Summary

Daily Weather History Graph

Daily Weather History Graph

Search for Another Location

Airport or City:

Trip Planner

Search our weather history database for the weather conditions in past years. The results will help you decide how hot, cold, wet, or windy it might be!

Date:

Astronomy

Mar. 14, 2014 Rise Set
Actual Time 6:56 AM CDT 6:52 PM CDT
Civil Twilight 6:32 AM CDT 7:17 PM CDT
Nautical Twilight 6:04 AM CDT 7:45 PM CDT
Astronomical Twilight 5:35 AM CDT 8:14 PM CDT
Moon 5:18 PM CDT (3/14) 5:31 AM CDT (3/14)
Length of Visible Light 12h 44m
Length of Day
11h 55m
Waxing Gibbous, 96% of the Moon is Illuminated
Mar 14
Waxing Gibbous
Mar 16
Full
Mar 23
Last Quarter
Mar 30
New
Apr 7
First Quarter

Hourly Weather History & Observations

Time (CDT) Temp. Windchill Dew Point Humidity Pressure Visibility Wind Dir Wind Speed Gust Speed Precip Events Conditions
12:58 AM 39.2 °F - 37.0 °F 92% 30.26 in 10.0 mi Variable 1.2 mph - N/A   Clear
1:48 AM 39.2 °F - 39.2 °F 100% 30.25 in 2.5 mi Calm Calm - N/A   Clear
1:53 AM 39.2 °F - 39.2 °F 100% 30.25 in 3.0 mi Calm Calm - N/A   Clear
1:58 AM 40.3 °F - 39.7 °F 98% 30.26 in 9.0 mi North 1.2 mph - N/A   Clear
2:53 AM 39.2 °F - 39.2 °F 100% 30.24 in 2.5 mi North 2.3 mph - N/A   Clear
2:58 AM 39.2 °F - 37.4 °F 93% 30.25 in 3.0 mi North 2.3 mph - N/A   Clear
3:58 AM 37.9 °F - 37.4 °F 98% 30.24 in 10.0 mi NE 2.3 mph - N/A   Clear
4:58 AM 38.3 °F - 37.4 °F 97% 30.25 in 10.0 mi ENE 2.3 mph - N/A   Clear
5:58 AM 36.7 °F - 35.8 °F 97% 30.26 in 10.0 mi NE 2.3 mph - N/A   Clear
6:58 AM 36.3 °F 33.7 °F 34.9 °F 95% 30.27 in 10.0 mi NNE 3.5 mph - N/A   Clear
7:58 AM 38.5 °F - 36.5 °F 93% 30.29 in 10.0 mi NNE 2.3 mph - N/A   Clear
8:58 AM 44.2 °F - 37.4 °F 77% 30.33 in 10.0 mi Calm Calm - N/A   Clear
9:58 AM 53.4 °F - 31.6 °F 44% 30.33 in 10.0 mi SSE 6.9 mph - N/A   Clear
10:58 AM 59.2 °F - 31.6 °F 35% 30.30 in 10.0 mi SE 13.8 mph - N/A   Clear
11:58 AM 62.1 °F - 29.1 °F 29% 30.28 in 10.0 mi SSE 10.4 mph - N/A   Clear
12:58 PM 64.4 °F - 29.7 °F 27% 30.25 in 10.0 mi South 10.4 mph - N/A   Clear
1:58 PM 66.0 °F - 30.4 °F 26% 30.20 in 10.0 mi South 9.2 mph 18.4 mph N/A   Clear
2:58 PM 67.8 °F - 31.6 °F 26% 30.17 in 10.0 mi Variable 3.5 mph - N/A   Clear
3:58 PM 69.3 °F - 32.9 °F 26% 30.15 in 10.0 mi South 9.2 mph - N/A   Mostly Cloudy
4:58 PM 69.4 °F - 33.3 °F 26% 30.14 in 10.0 mi SW 9.2 mph - N/A   Partly Cloudy
5:58 PM 66.7 °F - 34.5 °F 30% 30.13 in 10.0 mi SSW 5.8 mph - N/A   Mostly Cloudy
6:58 PM 64.6 °F - 37.0 °F 36% 30.14 in 10.0 mi SW 2.3 mph - N/A   Mostly Cloudy
7:58 PM 60.8 °F - 41.9 °F 50% 30.15 in 10.0 mi Calm Calm - N/A   Overcast
8:58 PM 58.6 °F - 46.6 °F 64% 30.16 in 10.0 mi South 1.2 mph - N/A   Overcast
9:58 PM 60.8 °F - 42.4 °F 51% 30.17 in 10.0 mi SSW 8.1 mph - N/A   Overcast
10:58 PM 60.1 °F - 45.0 °F 57% 30.17 in 10.0 mi SSW 5.8 mph - N/A   Overcast
11:58 PM 59.0 °F - 46.6 °F 63% 30.15 in 10.0 mi SSW 4.6 mph - N/A   Overcast